timestamp,wind_dir_avg,wind_spd_max_dir,wind_spd_avg,wind_spd_gust,battery_voltage,lat,long
2019-01-26 00:00:00+00:00,241.0,231.0,6.74,7.9,,47.59359,-54.27349
2019-01-26 00:10:00+00:00,227.0,228.0,6.73,7.52,,47.59359,-54.27349
2019-01-26 00:20:00+00:00,219.0,221.0,7.04,7.84,,47.59359,-54.27349
2019-01-26 00:30:00+00:00,224.0,226.0,8.23,9.0,,47.59359,-54.27349
2019-01-26 00:40:00+00:00,223.0,225.0,9.49,10.6,,47.59359,-54.27349
2019-01-26 00:50:00+00:00,226.0,228.0,8.79,10.08,,47.59359,-54.27349
2019-01-26 01:00:00+00:00,227.0,227.0,10.37,12.37,,47.59359,-54.27349
2019-01-26 01:10:00+00:00,233.0,236.0,8.92,9.84,,47.59359,-54.27349
2019-01-26 01:20:00+00:00,224.0,225.0,7.24,8.38,,47.59359,-54.27349
2019-01-26 01:30:00+00:00,235.0,233.0,6.12,7.2,,47.59359,-54.27349
2019-01-26 01:40:00+00:00,237.0,231.0,6.31,8.17,,47.59359,-54.27349
2019-01-26 01:50:00+00:00,244.0,253.0,7.03,9.3,,47.59359,-54.27349
2019-01-26 02:00:00+00:00,247.0,243.0,7.78,8.76,,47.59359,-54.27349
2019-01-26 02:10:00+00:00,247.0,243.0,7.78,8.47,,47.59359,-54.27349
2019-01-26 02:20:00+00:00,245.0,248.0,7.16,8.37,,47.59359,-54.27349
2019-01-26 02:30:00+00:00,238.0,243.0,7.26,8.32,,47.59359,-54.27349
2019-01-26 05:40:00+00:00,219.0,229.0,5.45,6.87,,47.59359,-54.27349
2019-01-26 05:50:00+00:00,226.0,228.0,6.54,7.1,,47.59359,-54.27349
2019-01-26 06:00:00+00:00,227.0,225.0,6.82,7.71,,47.59359,-54.27349
2019-01-26 06:10:00+00:00,227.0,229.0,6.94,7.75,,47.59359,-54.27349
2019-01-26 06:20:00+00:00,231.0,234.0,8.14,10.96,,47.59359,-54.27349
2019-01-26 06:30:00+00:00,236.0,249.0,7.97,12.39,,47.59359,-54.27349
2019-01-26 06:40:00+00:00,248.0,255.0,9.4,12.27,,47.59359,-54.27349
2019-01-26 06:50:00+00:00,255.0,256.0,10.31,12.73,,47.59359,-54.27349
2019-01-26 07:00:00+00:00,253.0,257.0,7.79,9.09,,47.59359,-54.27349
2019-01-26 07:10:00+00:00,243.0,246.0,7.11,8.56,,47.59359,-54.27349
2019-01-26 07:20:00+00:00,240.0,239.0,6.88,7.94,,47.59359,-54.27349
2019-01-26 07:30:00+00:00,243.0,234.0,6.63,7.55,,47.59359,-54.27349
2019-01-26 07:40:00+00:00,249.0,253.0,7.53,8.65,,47.59359,-54.27349
2019-01-26 07:50:00+00:00,253.0,251.0,7.63,8.33,,47.59359,-54.27349
2019-01-26 08:00:00+00:00,254.0,257.0,8.41,10.16,,47.59359,-54.27349
2019-01-26 08:10:00+00:00,254.0,253.0,7.85,8.89,,47.59359,-54.27349
2019-01-26 08:20:00+00:00,265.0,266.0,8.55,9.86,,47.59359,-54.27349
2019-01-26 08:30:00+00:00,267.0,266.0,9.9,12.9,,47.59359,-54.27349
2019-01-26 08:40:00+00:00,264.0,267.0,8.03,8.9,,47.59359,-54.27349
2019-01-26 08:50:00+00:00,263.0,261.0,7.88,8.75,,47.59359,-54.27349
2019-01-26 09:00:00+00:00,269.0,273.0,7.92,9.04,,47.59359,-54.27349
2019-01-26 09:10:00+00:00,263.0,258.0,7.63,8.33,,47.59359,-54.27349
2019-01-26 09:20:00+00:00,259.0,254.0,8.08,9.52,,47.59359,-54.27349
2019-01-26 09:30:00+00:00,265.0,269.0,7.58,8.49,,47.59359,-54.27349
2019-01-26 09:40:00+00:00,261.0,260.0,8.52,9.58,,47.59359,-54.27349
2019-01-26 09:50:00+00:00,263.0,264.0,8.5,9.91,,47.59359,-54.27349
2019-01-26 10:00:00+00:00,261.0,262.0,7.87,8.68,,47.59359,-54.27349
2019-01-26 10:10:00+00:00,257.0,251.0,8.12,8.91,,47.59359,-54.27349
2019-01-26 10:20:00+00:00,263.0,262.0,8.4,9.85,,47.59359,-54.27349
2019-01-26 10:30:00+00:00,259.0,261.0,7.59,9.1,,47.59359,-54.27349
2019-01-26 10:40:00+00:00,261.0,260.0,8.06,9.69,,47.59359,-54.27349
2019-01-26 10:50:00+00:00,255.0,256.0,6.93,8.03,,47.59359,-54.27349
2019-01-26 11:00:00+00:00,255.0,255.0,7.79,8.74,,47.59359,-54.27349
2019-01-26 11:10:00+00:00,254.0,247.0,7.36,8.06,,47.59359,-54.27349
2019-01-26 11:20:00+00:00,260.0,261.0,7.93,8.89,,47.59359,-54.27349
2019-01-26 11:30:00+00:00,258.0,255.0,7.1,8.13,,47.59359,-54.27349
2019-01-26 11:40:00+00:00,263.0,266.0,7.65,8.26,,47.59359,-54.27349
2019-01-26 11:50:00+00:00,265.0,267.0,8.41,9.32,,47.59359,-54.27349
2019-01-26 12:00:00+00:00,264.0,266.0,8.04,8.88,,47.59359,-54.27349
2019-01-26 12:10:00+00:00,267.0,263.0,6.69,7.43,,47.59359,-54.27349
2019-01-26 12:20:00+00:00,264.0,265.0,6.18,7.01,,47.59359,-54.27349
2019-01-26 12:30:00+00:00,266.0,274.0,6.56,7.18,,47.59359,-54.27349
2019-01-26 12:40:00+00:00,253.0,251.0,5.38,6.67,,47.59359,-54.27349
2019-01-26 12:50:00+00:00,259.0,269.0,6.0,6.84,,47.59359,-54.27349
2019-01-26 13:00:00+00:00,255.0,254.0,6.16,6.67,,47.59359,-54.27349
2019-01-26 13:10:00+00:00,256.0,252.0,5.86,6.6,,47.59359,-54.27349
2019-01-26 13:20:00+00:00,252.0,253.0,6.48,7.06,,47.59359,-54.27349
2019-01-26 13:30:00+00:00,248.0,243.0,6.99,8.16,,47.59359,-54.27349
2019-01-26 13:40:00+00:00,245.0,248.0,6.48,7.11,,47.59359,-54.27349
2019-01-26 13:50:00+00:00,244.0,250.0,6.69,8.07,,47.59359,-54.27349
2019-01-26 14:00:00+00:00,256.0,260.0,6.99,7.53,,47.59359,-54.27349
2019-01-26 14:10:00+00:00,253.0,255.0,7.2,7.89,,47.59359,-54.27349
2019-01-26 14:20:00+00:00,250.0,253.0,7.49,8.16,,47.59359,-54.27349
2019-01-26 14:30:00+00:00,254.0,253.0,6.48,7.33,,47.59359,-54.27349
2019-01-26 14:40:00+00:00,249.0,249.0,6.48,7.52,,47.59359,-54.27349
2019-01-26 14:50:00+00:00,252.0,252.0,7.21,8.14,,47.59359,-54.27349
2019-01-26 15:00:00+00:00,257.0,253.0,7.15,7.73,,47.59359,-54.27349
2019-01-26 15:10:00+00:00,254.0,254.0,6.29,7.23,,47.59359,-54.27349
2019-01-26 15:20:00+00:00,257.0,253.0,6.21,7.32,,47.59359,-54.27349
2019-01-26 15:30:00+00:00,256.0,257.0,7.06,7.7,,47.59359,-54.27349
2019-01-26 15:40:00+00:00,258.0,261.0,7.54,8.3,,47.59359,-54.27349
2019-01-26 15:50:00+00:00,254.0,250.0,6.9,7.67,,47.59359,-54.27349
2019-01-26 16:00:00+00:00,253.0,250.0,6.11,7.27,,47.59359,-54.27349
2019-01-26 16:10:00+00:00,250.0,246.0,6.3,7.28,,47.59359,-54.27349
2019-01-26 16:20:00+00:00,253.0,247.0,5.78,6.71,,47.59359,-54.27349
2019-01-26 16:30:00+00:00,248.0,255.0,5.91,6.76,,47.59359,-54.27349
2019-01-26 16:40:00+00:00,246.0,246.0,5.73,6.35,,47.59359,-54.27349
2019-01-26 16:50:00+00:00,245.0,244.0,5.18,6.45,,47.59359,-54.27349
2019-01-26 17:00:00+00:00,247.0,255.0,4.73,5.64,,47.59359,-54.27349
2019-01-26 17:10:00+00:00,251.0,254.0,5.34,6.41,,47.59359,-54.27349
2019-01-26 17:20:00+00:00,255.0,257.0,6.92,7.69,,47.59359,-54.27349
2019-01-26 17:30:00+00:00,252.0,262.0,6.48,8.3,,47.59359,-54.27349
2019-01-26 17:40:00+00:00,253.0,254.0,7.76,8.4,,47.59359,-54.27349
2019-01-26 17:50:00+00:00,266.0,264.0,7.14,7.67,,47.59359,-54.27349
2019-01-26 18:00:00+00:00,255.0,255.0,7.02,7.97,,47.59359,-54.27349
2019-01-26 18:10:00+00:00,259.0,259.0,8.05,8.77,,47.59359,-54.27349
2019-01-26 18:20:00+00:00,246.0,241.0,6.96,8.03,,47.59359,-54.27349
2019-01-26 18:30:00+00:00,247.0,248.0,7.6,8.81,,47.59359,-54.27349
2019-01-26 18:40:00+00:00,245.0,247.0,7.5,9.52,,47.59359,-54.27349
2019-01-26 18:50:00+00:00,237.0,233.0,7.13,8.14,,47.59359,-54.27349
2019-01-26 19:00:00+00:00,241.0,235.0,7.43,9.8,,47.59359,-54.27349
2019-01-26 19:10:00+00:00,240.0,233.0,6.66,8.52,,47.59359,-54.27349
2019-01-26 19:20:00+00:00,244.0,246.0,6.7,7.44,,47.59359,-54.27349
2019-01-26 19:30:00+00:00,254.0,254.0,6.7,7.48,,47.59359,-54.27349
2019-01-26 19:40:00+00:00,254.0,254.0,7.38,8.19,,47.59359,-54.27349
2019-01-26 19:50:00+00:00,268.0,270.0,6.41,6.85,,47.59359,-54.27349
2019-01-26 20:00:00+00:00,264.0,261.0,6.47,7.53,,47.59359,-54.27349
2019-01-26 20:10:00+00:00,269.0,267.0,8.49,11.57,,47.59359,-54.27349
2019-01-26 20:20:00+00:00,260.0,261.0,7.27,8.11,,47.59359,-54.27349
2019-01-26 20:30:00+00:00,261.0,260.0,7.77,8.44,,47.59359,-54.27349
2019-01-26 20:40:00+00:00,260.0,259.0,8.24,9.0,,47.59359,-54.27349
2019-01-26 20:50:00+00:00,265.0,269.0,8.01,9.62,,47.59359,-54.27349
2019-01-26 21:00:00+00:00,265.0,266.0,7.97,9.19,,47.59359,-54.27349
2019-01-26 21:10:00+00:00,269.0,264.0,7.07,8.12,,47.59359,-54.27349
2019-01-26 21:20:00+00:00,273.0,272.0,7.37,8.54,,47.59359,-54.27349
2019-01-26 21:30:00+00:00,278.0,275.0,7.96,8.91,,47.59359,-54.27349
2019-01-26 21:40:00+00:00,278.0,277.0,8.24,9.19,,47.59359,-54.27349
2019-01-26 21:50:00+00:00,278.0,278.0,7.97,9.03,,47.59359,-54.27349
2019-01-26 22:00:00+00:00,279.0,278.0,7.04,7.69,,47.59359,-54.27349
2019-01-26 22:10:00+00:00,272.0,277.0,6.45,7.54,,47.59359,-54.27349
2019-01-26 22:20:00+00:00,265.0,263.0,5.55,7.38,,47.59359,-54.27349
2019-01-26 22:30:00+00:00,262.0,260.0,6.34,7.15,,47.59359,-54.27349
2019-01-26 22:40:00+00:00,257.0,255.0,6.07,6.98,,47.59359,-54.27349
2019-01-26 22:50:00+00:00,258.0,262.0,5.37,5.81,,47.59359,-54.27349
2019-01-26 23:00:00+00:00,257.0,253.0,5.95,6.82,,47.59359,-54.27349
2019-01-26 23:10:00+00:00,259.0,256.0,5.91,6.54,,47.59359,-54.27349
2019-01-26 23:20:00+00:00,258.0,260.0,5.81,6.39,,47.59359,-54.27349
2019-01-26 23:30:00+00:00,254.0,251.0,6.01,6.86,,47.59359,-54.27349
2019-01-26 23:40:00+00:00,246.0,249.0,6.24,6.88,,47.59359,-54.27349
2019-01-26 23:50:00+00:00,238.0,240.0,4.85,5.68,,47.59359,-54.27349
